STARLINK-1278 (45408 NORAD) Tracking and Keplerian Element Data

This shows tracking and keplerian element data for the satellite.

Feedback or suggestion? Click here.




ElementValue
Catalog45408
NameSTARLINK-1278
Epoch Orbit1845
Epoch Day197.25001157
Epoch Year2020
RAAN69.4252
Inclination53.0004
Eccentricity0.0001451
Argument of Perigee90.0792
Mean Anonmoly150.0063
Mean Motion14.99071747
Decay Rate0.00012543
L11 45408U 20019BA 20197.25001157 .00012543 00000-0 10422-2 0 9999
L22 45408 53.0004 69.4252 0001451 90.0792 150.0063 14.99071747 18453

Live tracking and technical data element details for STARLINK-1278 (NORAD 45408). STARLINK-1278 can be tracked NOW for your location showing map with azimuth and elevation plus other details from your city location.

Track the satellite on the map from your city or location and see movement details for azimuth, elevation, latitude, longitude, range, height, and movement on the map or in text.







IsCatalogInMostPopularTable: catalog: 45408, numindb: 24
Update: records affected: 1



GetName: 45408 STARLINK-1278

Hit Count: updated at: Thu, 16 Jul 2020 03:37:11 GMT